STARLINK-1770, 46383

Orbit data source: Space-Track

STARLINK-1770, 46383 is a payload satellite owned by SpaceX/Seattle (US) in LEO that was launched on Thu, 03 Sep 2020 UTC via an FALCON 9 launch vehicle from the Air Force Eastern Test Range (AFETR). Payload-class satellites include a variety of spacecraft equipped with specific instruments for various scientific and technological missions. These include communications satellites like Starlink; space stations such as the ISS; scientific satellites like the Hubble; Earth observation satellites from companies like Planet Labs, Umbra, and HawkEye 360; GPS; miniature CubeSats for education and research; and military/defense satellites.

Loading next visibility...
Identifier
46383, 2020-062BL
Orbit
LEO
Country
Flag of USUS
Related business
Manufacturer
SpaceX/Seattle
Mission
Partially operational Commercial Communications
Bus & Motor
STARLINK, Unknown motor
Mass
260 kg wet, ~248 kg dry
Launch date (UTC)
2020-09-03 (5 years ago)
Launch vehicle
FALCON 9
Launch site
Air Force Eastern Test Range (AFETR)
Object type
Payload
Rocket body
Debris
Shape & HBR
Box + 1 Pan, 10.1 m
Radar Cross Section
13.562 m², Large (>1 m²)

Expand to show TLE details & history
Last TLE update: 18 hours ago

TLE from 18 hours ago
0 STARLINK-1770
1 46383U 20062BL  26037.00002315  .00154668  00000-0  20533-2 0  9998
2 46383  53.0434 110.3362 0002920 214.7176 263.8026 15.57221685  5871
Epoch: 2026-02-06T00:00Z
TLE epoch observation values (Epoch: 2026-02-06T00:00:02.000Z)
Latitude
44.75765°
Longitude
106.29328°
Altitude
400.525 km
Speed
7.676 km/s
True Right ascension
16h 09m 46s
True Declination
44° 34' 36"
Sunlit
Object was in daylight at epoch
Visualization orbit readout
Latitude
Unknown
Longitude
Unknown
Altitude
Unknown
Speed
Unknown
Apparent Right ascension
Unknown
Apparent Declination
Unknown
Sunlit
N/A
Visualization observer readout
Local Sidereal Time
19:45:51
Azimuth
Unknown
Elevation
Unknown
Doppler factor
Unknown
Orbital elements
Apogee altitude
397.959 km
Perigee altitude
394.003 km
Semi-major axis
6,774.118 km
Eccentricity
0.00029
Inclination
53.0434°
RAAN
110.3362°
Arg. of periapsis
214.7176°
True anomaly
263.76934°
Mean anomaly
263.8026°
Eccentric anomaly
263.78597°
Mean motion
3.89282 °/min
Orbital period
92.48 mins
BSTAR
0.0020533
Loading maneuver chart data...
Computing Atmospheric mass density...
Loading historical data...
Loading historical data...
Loading historical data...
Loading historical data...
Loading historical data...
Loading historical data...
Loading historical data...

Documentation

Showing up to 5 results
|